This is the latest recevied weather packets stored in our database for station/object PP5CFL-2. If no packets are shown the sender has not sent any weather packets the latest 10 day(s).
| Time | Temp. | Humidity | Pressure | Rain* | Wind** | Luminosity | Snow |
|---|---|---|---|---|---|---|---|
| 1787923909 | 32.78° C | 60% | 1005.6 hPa | - | - | - | - |
| 1787923609 | 33.33° C | 60% | 1005.6 hPa | - | - | - | - |
| 1787923309 | 32.78° C | 62% | 1005.7 hPa | - | - | - | - |
| 1787923009 | 32.78° C | 63% | 1005.9 hPa | - | - | - | - |
| 1787922709 | 32.22° C | 63% | 1006 hPa | - | - | - | - |
| 1787922409 | 32.22° C | 64% | 1005.8 hPa | - | - | - | - |
| 1787922109 | 31.67° C | 65% | 1006 hPa | - | - | - | - |
| 1787921809 | 31.67° C | 67% | 1006.1 hPa | - | - | - | - |
| 1787921509 | 31.11° C | 68% | 1006.2 hPa | - | - | - | - |
| 1787921209 | 31.11° C | 68% | 1006.4 hPa | - | - | - | - |
| 1787920909 | 30.56° C | 68% | 1006.1 hPa | - | - | - | - |
| 1787920609 | 30° C | 71% | 1006.3 hPa | - | - | - | - |
| 1787920309 | 30° C | 71% | 1006.3 hPa | - | - | - | - |
| 1787920009 | 30° C | 72% | 1006.4 hPa | - | - | - | - |
| 1787919709 | 29.44° C | 73% | 1006.2 hPa | - | - | - | - |
| 1787919409 | 28.89° C | 76% | 1006.3 hPa | - | - | - | - |
| 1787919109 | 28.33° C | 77% | 1006.5 hPa | - | - | - | - |
| 1787918809 | 28.33° C | 78% | 1006.5 hPa | - | - | - | - |
| 1787918509 | 27.78° C | 81% | 1006.5 hPa | - | - | - | - |
| 1787918209 | 27.22° C | 83% | 1006.7 hPa | - | - | - | - |
| 1787917909 | 27.22° C | 84% | 1006.7 hPa | - | - | - | - |
| 1787917609 | 26.67° C | 85% | 1006.7 hPa | - | - | - | - |
| 1787917309 | 26.67° C | 86% | 1006.7 hPa | - | - | - | - |
| 1787917009 | 26.11° C | 87% | 1006.8 hPa | - | - | - | - |
| 1787916709 | 26.67° C | 87% | 1006.8 hPa | - | - | - | - |
* Rain since midnight (hover to see other rain measurements)
** Current wind speed in m/s (hover to see current wind gust speed)